QPF
0.00 0.00 0.00 0.00 0.00 0.00 0.00 0.00 0.00 0.00 0.00 0.00 0.00 0.00 0.00 0.00 0.00 0.00 0.00 0.00 0.00 0.00 0.00 0.00 0.00 0.01 0.02 0.03 0.06 0.13 0.16 0.17 0.16 0.13 0.15 0.20 0.17 0.09 0.05 0.03 0.02 0.02 0.02
0.00 0.00 0.00 0.00 0.00 0.00 0.00 0.00 0.00 0.00 0.00 0.00 0.00 0.00 0.00 0.00 0.00 0.00 0.00 0.00 0.00 0.00 0.00 0.00 0.00 0.00 0.01 0.01 0.03 0.07 0.13 0.17 0.17 0.17 0.22 0.27 0.24 0.17 0.10 0.04 0.01 0.00 0.00
0.00 0.00 0.00 0.00 0.00 0.00 0.00 0.00 0.00 0.00 0.00 0.00 0.00 0.00 0.00 0.00 0.00 0.00 0.00 0.00 0.00 0.00 0.00 0.00 0.00 0.00 0.00 0.01 0.01 0.04 0.09 0.13 0.18 0.20 0.23 0.31 0.35 0.28 0.15 0.05 0.01 0.00 0.00
0.00 0.00 0.00 0.00 0.00 0.00 0.00 0.00 0.00 0.00 0.00 0.00 0.00 0.00 0.00 0.00 0.00 0.00 0.00 0.00 0.00 0.00 0.00 0.00 0.00 0.00 0.00 0.00 0.01 0.02 0.06 0.09 0.17 0.23 0.27 0.34 0.40 0.37 0.23 0.09 0.02 0.01 0.00
0.00 0.00 0.00 0.00 0.00 0.00 0.00 0.00 0.00 0.00 0.00 0.00 0.00 0.00 0.00 0.00 0.00 0.00 0.00 0.00 0.00 0.01 0.01 0.01 0.00 0.00 0.01 0.00 0.01 0.01 0.03 0.06 0.11 0.21 0.28 0.37 0.37 0.34 0.29 0.16 0.06 0.02 0.00
0.00 0.00 0.00 0.00 0.00 0.00 0.00 0.00 0.00 0.00 0.00 0.00 0.00 0.00 0.00 0.00 0.00 0.00 0.00 0.00 0.00 0.01 0.01 0.01 0.01 0.01 0.01 0.01 0.01 0.01 0.02 0.04 0.07 0.15 0.24 0.32 0.34 0.29 0.27 0.23 0.11 0.03 0.01
0.00 0.00 0.00 0.00 0.00 0.00 0.00 0.00 0.00 0.00 0.00 0.00 0.00 0.00 0.00 0.00 0.00 0.00 0.00 0.00 0.00 0.01 0.01 0.02 0.02 0.01 0.01 0.01 0.01 0.01 0.01 0.02 0.04 0.11 0.18 0.26 0.34 0.36 0.29 0.24 0.16 0.07 0.02
0.00 0.00 0.00 0.00 0.00 0.00 0.00 0.00 0.00 0.00 0.00 0.00 0.00 0.00 0.00 0.00 0.00 0.00 0.00 0.00 0.00 0.01 0.02 0.02 0.02 0.02 0.03 0.03 0.03 0.02 0.01 0.01 0.02 0.06 0.12 0.23 0.34 0.40 0.38 0.33 0.27 0.16 0.07
0.00 0.00 0.00 0.00 0.00 0.00 0.00 0.00 0.00 0.00 0.00 0.00 0.00 0.00 0.00 0.00 0.01 0.01 0.01 0.01 0.01 0.02 0.02 0.03 0.03 0.02 0.03 0.04 0.05 0.03 0.02 0.01 0.02 0.04 0.08 0.18 0.33 0.45 0.45 0.40 0.32 0.23 0.12
0.00 0.00 0.00 0.00 0.00 0.00 0.00 0.00 0.00 0.00 0.00 0.00 0.00 0.01 0.01 0.01 0.01 0.01 0.01 0.01 0.01 0.02 0.03 0.04 0.05 0.05 0.04 0.04 0.05 0.05 0.03 0.02 0.03 0.04 0.05 0.10 0.23 0.38 0.46 0.38 0.28 0.22 0.15
0.00 0.00 0.00 0.00 0.00 0.00 0.01 0.01 0.01 0.01 0.01 0.00 0.00 0.01 0.01 0.01 0.01 0.01 0.01 0.01 0.02 0.03 0.03 0.04 0.06 0.06 0.05 0.05 0.05 0.05 0.03 0.03 0.04 0.05 0.06 0.08 0.15 0.27 0.38 0.40 0.30 0.20 0.14
0.00 0.00 0.00 0.00 0.00 0.00 0.00 0.00 0.01 0.01 0.01 0.01 0.01 0.01 0.01 0.02 0.01 0.01 0.01 0.01 0.02 0.03 0.04 0.05 0.06 0.07 0.05 0.05 0.05 0.06 0.05 0.04 0.05 0.07 0.06 0.08 0.11 0.19 0.30 0.37 0.34 0.27 0.16
0.00 0.00 0.00 0.00 0.00 0.01 0.01 0.01 0.01 0.01 0.01 0.01 0.01 0.01 0.01 0.02 0.02 0.01 0.00 0.00 0.01 0.02 0.03 0.05 0.06 0.06 0.06 0.05 0.04 0.05 0.05 0.04 0.04 0.05 0.06 0.07 0.09 0.14 0.26 0.38 0.39 0.37 0.28
0.00 0.00 0.00 0.00 0.00 0.01 0.01 0.01 0.01 0.01 0.01 0.00 0.00 0.00 0.01 0.01 0.02 0.01 0.01 0.00 0.01 0.01 0.03 0.04 0.06 0.06 0.05 0.05 0.04 0.04 0.04 0.04 0.03 0.04 0.06 0.07 0.11 0.18 0.24 0.35 0.39 0.37 0.34
0.00 0.00 0.00 0.00 0.01 0.01 0.01 0.01 0.01 0.01 0.00 0.00 0.00 0.00 0.00 0.01 0.00 0.00 0.01 0.02 0.02 0.01 0.02 0.03 0.04 0.04 0.04 0.04 0.03 0.03 0.03 0.03 0.02 0.02 0.05 0.08 0.13 0.19 0.24 0.29 0.34 0.30 0.26
0.00 0.00 0.00 0.00 0.01 0.01 0.01 0.01 0.01 0.00 0.00 0.00 0.00 0.00 0.00 0.00 0.00 0.00 0.00 0.01 0.01 0.01 0.01 0.02 0.04 0.04 0.04 0.03 0.04 0.03 0.02 0.02 0.02 0.02 0.03 0.07 0.12 0.18 0.22 0.27 0.29 0.27 0.22
0.00 0.00 0.00 0.00 0.01 0.01 0.01 0.02 0.02 0.01 0.01 0.00 0.00 0.00 0.00 0.00 0.00 0.00 0.00 0.00 0.01 0.01 0.01 0.01 0.03 0.04 0.05 0.04 0.03 0.03 0.02 0.01 0.01 0.02 0.03 0.05 0.10 0.16 0.20 0.22 0.27 0.26 0.22
0.00 0.00 0.00 0.01 0.01 0.01 0.02 0.02 0.02 0.02 0.01 0.01 0.01 0.00 0.00 0.00 0.00 0.00 0.00 0.00 0.00 0.00 0.00 0.01 0.02 0.02 0.04 0.03 0.02 0.02 0.02 0.02 0.02 0.02 0.03 0.04 0.08 0.14 0.18 0.18 0.20 0.23 0.21
0.00 0.00 0.00 0.00 0.01 0.01 0.02 0.02 0.02 0.02 0.01 0.01 0.01 0.01 0.01 0.00 0.00 0.01 0.00 0.00 0.01 0.01 0.01 0.01 0.01 0.02 0.03 0.03 0.02 0.02 0.03 0.03 0.03 0.03 0.03 0.04 0.07 0.12 0.17 0.16 0.16 0.21 0.21
0.00 0.00 0.00 0.00 0.01 0.01 0.01 0.02 0.02 0.01 0.01 0.01 0.01 0.01 0.01 0.01 0.01 0.01 0.01 0.00 0.01 0.01 0.01 0.01 0.01 0.02 0.03 0.03 0.02 0.02 0.02 0.02 0.03 0.03 0.04 0.04 0.05 0.10 0.15 0.15 0.13 0.15 0.17
0.00 0.00 0.00 0.00 0.01 0.01 0.01 0.01 0.01 0.01 0.02 0.01 0.01 0.01 0.01 0.01 0.02 0.02 0.01 0.01 0.01 0.01 0.01 0.01 0.02 0.02 0.03 0.03 0.03 0.02 0.03 0.02 0.02 0.03 0.03 0.04 0.05 0.07 0.13 0.15 0.12 0.09 0.12
0.00 0.00 0.00 0.00 0.01 0.01 0.01 0.01 0.01 0.01 0.01 0.01 0.01 0.01 0.01 0.02 0.02 0.02 0.02 0.02 0.02 0.02 0.02 0.02 0.02 0.03 0.03 0.03 0.03 0.02 0.02 0.02 0.02 0.02 0.03 0.04 0.05 0.06 0.10 0.14 0.14 0.11 0.10
0.00 0.00 0.00 0.00 0.01 0.01 0.01 0.01 0.01 0.01 0.01 0.01 0.02 0.02 0.02 0.02 0.01 0.02 0.02 0.03 0.03 0.02 0.02 0.02 0.02 0.03 0.03 0.03 0.02 0.02 0.02 0.02 0.02 0.02 0.03 0.04 0.04 0.05 0.07 0.10 0.11 0.13 0.11
0.00 0.00 0.00 0.00 0.01 0.01 0.01 0.01 0.01 0.01 0.01 0.02 0.02 0.02 0.02 0.03 0.03 0.02 0.03 0.04 0.04 0.04 0.03 0.03 0.02 0.02 0.01 0.01 0.02 0.02 0.02 0.02 0.02 0.02 0.03 0.03 0.04 0.05 0.07 0.08 0.09 0.11 0.11
0.00 0.00 0.00 0.00 0.00 0.00 0.01 0.01 0.01 0.01 0.01 0.02 0.02 0.02 0.02 0.03 0.04 0.03 0.03 0.04 0.04 0.03 0.04 0.04 0.04 0.04 0.03 0.03 0.03 0.03 0.03 0.03 0.03 0.03 0.03 0.04 0.04 0.05 0.07 0.09 0.09 0.11 0.14
0.00 0.00 0.00 0.00 0.00 0.00 0.00 0.01 0.01 0.01 0.01 0.02 0.03 0.02 0.02 0.03 0.05 0.05 0.03 0.03 0.03 0.03 0.03 0.03 0.05 0.07 0.06 0.05 0.05 0.05 0.05 0.04 0.03 0.04 0.04 0.04 0.06 0.07 0.08 0.10 0.12 0.14 0.17
MSLP
1012.85 1012.77 1012.75 1012.76 1012.75 1012.72 1012.63 1012.50 1012.33 1012.14 1011.93 1011.71 1011.48 1011.23 1010.97 1010.70 1010.42 1010.17 1009.95 1009.80 1009.72 1009.71 1009.76 1009.86 1009.96 1010.03 1010.06 1010.01 1009.89 1009.70 1009.47 1009.23 1008.99 1008.79 1008.63 1008.53 1008.48 1008.49 1008.55 1008.67 1008.84 1009.07 1009.37
1012.51 1012.39 1012.34 1012.31 1012.29 1012.24 1012.17 1012.06 1011.92 1011.76 1011.57 1011.35 1011.11 1010.85 1010.56 1010.26 1009.96 1009.68 1009.44 1009.26 1009.16 1009.13 1009.16 1009.23 1009.32 1009.40 1009.44 1009.44 1009.39 1009.31 1009.20 1009.09 1008.99 1008.92 1008.88 1008.86 1008.87 1008.91 1008.96 1009.04 1009.17 1009.34 1009.57
1012.20 1012.06 1011.97 1011.90 1011.84 1011.77 1011.68 1011.57 1011.43 1011.28 1011.10 1010.89 1010.66 1010.40 1010.11 1009.81 1009.50 1009.22 1008.97 1008.79 1008.67 1008.62 1008.62 1008.67 1008.74 1008.81 1008.86 1008.89 1008.90 1008.89 1008.88 1008.89 1008.91 1008.95 1009.00 1009.07 1009.14 1009.21 1009.29 1009.37 1009.48 1009.63 1009.84
1011.93 1011.77 1011.65 1011.54 1011.42 1011.31 1011.18 1011.04 1010.88 1010.72 1010.54 1010.34 1010.12 1009.87 1009.60 1009.32 1009.04 1008.77 1008.54 1008.36 1008.23 1008.17 1008.16 1008.18 1008.22 1008.27 1008.32 1008.36 1008.41 1008.45 1008.51 1008.59 1008.69 1008.81 1008.95 1009.08 1009.21 1009.33 1009.44 1009.55 1009.68 1009.85 1010.08
1011.71 1011.54 1011.38 1011.22 1011.04 1010.86 1010.67 1010.48 1010.29 1010.10 1009.90 1009.71 1009.50 1009.27 1009.03 1008.78 1008.53 1008.29 1008.09 1007.93 1007.81 1007.74 1007.72 1007.72 1007.74 1007.77 1007.81 1007.86 1007.91 1007.98 1008.07 1008.20 1008.34 1008.51 1008.69 1008.87 1009.04 1009.20 1009.36 1009.52 1009.71 1009.94 1010.22
1011.52 1011.35 1011.15 1010.94 1010.70 1010.45 1010.18 1009.92 1009.68 1009.44 1009.22 1009.01 1008.80 1008.59 1008.38 1008.16 1007.95 1007.75 1007.57 1007.43 1007.33 1007.27 1007.24 1007.23 1007.24 1007.26 1007.29 1007.33 1007.38 1007.46 1007.57 1007.71 1007.88 1008.07 1008.26 1008.46 1008.66 1008.86 1009.06 1009.28 1009.54 1009.85 1010.23
1011.35 1011.18 1010.95 1010.69 1010.38 1010.05 1009.71 1009.38 1009.07 1008.78 1008.52 1008.28 1008.06 1007.85 1007.65 1007.45 1007.26 1007.09 1006.94 1006.82 1006.73 1006.67 1006.65 1006.64 1006.64 1006.66 1006.70 1006.74 1006.81 1006.89 1007.01 1007.16 1007.33 1007.52 1007.72 1007.92 1008.13 1008.35 1008.58 1008.86 1009.19 1009.59 1010.08
1011.18 1011.00 1010.76 1010.45 1010.09 1009.69 1009.27 1008.86 1008.47 1008.12 1007.81 1007.53 1007.28 1007.05 1006.84 1006.64 1006.46 1006.30 1006.16 1006.05 1005.98 1005.93 1005.91 1005.91 1005.93 1005.96 1006.01 1006.08 1006.17 1006.28 1006.42 1006.58 1006.75 1006.94 1007.13 1007.32 1007.53 1007.75 1008.01 1008.32 1008.71 1009.20 1009.78
1010.99 1010.81 1010.55 1010.20 1009.79 1009.33 1008.85 1008.37 1007.91 1007.49 1007.12 1006.79 1006.49 1006.23 1006.00 1005.78 1005.59 1005.42 1005.28 1005.17 1005.09 1005.04 1005.03 1005.04 1005.09 1005.15 1005.24 1005.36 1005.49 1005.65 1005.82 1006.01 1006.20 1006.38 1006.57 1006.75 1006.94 1007.16 1007.42 1007.75 1008.17 1008.71 1009.37
1010.76 1010.58 1010.30 1009.93 1009.47 1008.97 1008.43 1007.89 1007.38 1006.90 1006.47 1006.08 1005.74 1005.44 1005.17 1004.92 1004.71 1004.52 1004.36 1004.23 1004.14 1004.09 1004.08 1004.11 1004.18 1004.29 1004.43 1004.60 1004.80 1005.02 1005.24 1005.47 1005.69 1005.89 1006.08 1006.25 1006.42 1006.62 1006.86 1007.19 1007.62 1008.18 1008.89
1010.48 1010.29 1010.00 1009.60 1009.12 1008.58 1008.01 1007.43 1006.87 1006.35 1005.87 1005.44 1005.06 1004.72 1004.41 1004.14 1003.89 1003.68 1003.49 1003.35 1003.24 1003.18 1003.17 1003.21 1003.30 1003.45 1003.64 1003.87 1004.13 1004.42 1004.71 1004.99 1005.25 1005.47 1005.67 1005.83 1005.98 1006.15 1006.37 1006.67 1007.08 1007.64 1008.35
1010.16 1009.95 1009.63 1009.22 1008.72 1008.16 1007.57 1006.97 1006.39 1005.84 1005.34 1004.88 1004.48 1004.11 1003.79 1003.49 1003.23 1002.99 1002.79 1002.62 1002.49 1002.42 1002.40 1002.44 1002.54 1002.70 1002.93 1003.21 1003.53 1003.87 1004.22 1004.55 1004.85 1005.10 1005.31 1005.47 1005.60 1005.75 1005.93 1006.20 1006.58 1007.11 1007.80
1009.80 1009.56 1009.22 1008.78 1008.27 1007.70 1007.10 1006.50 1005.91 1005.37 1004.86 1004.41 1004.00 1003.64 1003.32 1003.02 1002.76 1002.51 1002.30 1002.12 1001.97 1001.88 1001.84 1001.86 1001.95 1002.12 1002.36 1002.66 1003.01 1003.39 1003.77 1004.14 1004.47 1004.75 1004.96 1005.13 1005.25 1005.38 1005.53 1005.76 1006.11 1006.60 1007.25
1009.42 1009.14 1008.76 1008.30 1007.78 1007.20 1006.61 1006.02 1005.46 1004.93 1004.45 1004.02 1003.64 1003.31 1003.01 1002.74 1002.49 1002.26 1002.05 1001.86 1001.70 1001.59 1001.52 1001.51 1001.58 1001.72 1001.94 1002.23 1002.58 1002.96 1003.35 1003.74 1004.08 1004.37 1004.60 1004.77 1004.89 1005.01 1005.15 1005.35 1005.67 1006.12 1006.73
1009.03 1008.70 1008.29 1007.80 1007.27 1006.70 1006.12 1005.56 1005.02 1004.53 1004.09 1003.70 1003.36 1003.08 1002.82 1002.59 1002.38 1002.18 1001.99 1001.81 1001.65 1001.51 1001.41 1001.37 1001.39 1001.48 1001.65 1001.90 1002.22 1002.57 1002.95 1003.32 1003.66 1003.96 1004.19 1004.37 1004.51 1004.63 1004.77 1004.97 1005.26 1005.68 1006.25
1008.65 1008.27 1007.83 1007.33 1006.78 1006.22 1005.66 1005.12 1004.62 1004.16 1003.76 1003.42 1003.14 1002.90 1002.71 1002.53 1002.37 1002.21 1002.04 1001.88 1001.72 1001.56 1001.44 1001.35 1001.32 1001.35 1001.46 1001.65 1001.90 1002.20 1002.54 1002.88 1003.21 1003.50 1003.74 1003.93 1004.09 1004.24 1004.40 1004.61 1004.91 1005.32 1005.86
1008.29 1007.88 1007.41 1006.90 1006.35 1005.80 1005.25 1004.73 1004.26 1003.83 1003.47 1003.17 1002.93 1002.74 1002.59 1002.46 1002.34 1002.22 1002.09 1001.95 1001.79 1001.63 1001.48 1001.35 1001.27 1001.25 1001.29 1001.41 1001.59 1001.84 1002.12 1002.42 1002.73 1003.01 1003.26 1003.48 1003.67 1003.86 1004.06 1004.30 1004.62 1005.03 1005.56
1007.95 1007.53 1007.06 1006.54 1006.00 1005.46 1004.92 1004.42 1003.96 1003.55 1003.21 1002.93 1002.71 1002.55 1002.43 1002.33 1002.24 1002.15 1002.04 1001.92 1001.77 1001.61 1001.44 1001.29 1001.17 1001.10 1001.09 1001.14 1001.27 1001.45 1001.69 1001.96 1002.24 1002.52 1002.79 1003.04 1003.27 1003.51 1003.76 1004.05 1004.40 1004.83 1005.36
1007.66 1007.25 1006.78 1006.28 1005.75 1005.22 1004.69 1004.19 1003.73 1003.32 1002.97 1002.69 1002.47 1002.31 1002.19 1002.09 1002.02 1001.94 1001.85 1001.73 1001.60 1001.44 1001.27 1001.11 1000.97 1000.87 1000.82 1000.83 1000.91 1001.06 1001.26 1001.50 1001.77 1002.05 1002.34 1002.62 1002.91 1003.20 1003.51 1003.85 1004.24 1004.70 1005.23
1007.40 1007.02 1006.59 1006.11 1005.59 1005.07 1004.54 1004.03 1003.56 1003.13 1002.76 1002.45 1002.20 1002.01 1001.87 1001.76 1001.68 1001.59 1001.50 1001.39 1001.27 1001.12 1000.96 1000.80 1000.66 1000.55 1000.48 1000.47 1000.53 1000.65 1000.83 1001.06 1001.32 1001.61 1001.92 1002.24 1002.57 1002.92 1003.28 1003.68 1004.11 1004.60 1005.14
1007.19 1006.86 1006.46 1006.01 1005.52 1005.00 1004.47 1003.95 1003.45 1002.99 1002.58 1002.23 1001.93 1001.70 1001.52 1001.37 1001.26 1001.16 1001.05 1000.95 1000.82 1000.68 1000.54 1000.39 1000.26 1000.16 1000.09 1000.08 1000.13 1000.24 1000.41 1000.63 1000.90 1001.20 1001.53 1001.88 1002.25 1002.63 1003.04 1003.48 1003.96 1004.47 1005.02
1007.01 1006.74 1006.39 1005.97 1005.50 1004.98 1004.45 1003.91 1003.39 1002.89 1002.43 1002.03 1001.69 1001.40 1001.17 1000.98 1000.83 1000.70 1000.58 1000.47 1000.34 1000.21 1000.08 999.95 999.84 999.75 999.70 999.70 999.75 999.85 1000.02 1000.24 1000.50 1000.80 1001.14 1001.50 1001.90 1002.31 1002.75 1003.23 1003.73 1004.26 1004.83
1006.88 1006.66 1006.35 1005.96 1005.50 1004.99 1004.45 1003.90 1003.34 1002.81 1002.32 1001.88 1001.49 1001.16 1000.88 1000.66 1000.47 1000.32 1000.18 1000.05 999.93 999.80 999.68 999.57 999.47 999.39 999.35 999.35 999.40 999.51 999.66 999.87 1000.12 1000.41 1000.74 1001.10 1001.50 1001.92 1002.38 1002.87 1003.39 1003.93 1004.51
1006.78 1006.60 1006.32 1005.95 1005.51 1005.00 1004.46 1003.89 1003.32 1002.77 1002.25 1001.78 1001.36 1001.00 1000.70 1000.45 1000.24 1000.07 999.91 999.78 999.65 999.52 999.41 999.30 999.20 999.13 999.09 999.09 999.13 999.22 999.36 999.54 999.76 1000.02 1000.33 1000.67 1001.05 1001.47 1001.92 1002.41 1002.93 1003.49 1004.08
1006.71 1006.55 1006.30 1005.94 1005.50 1005.00 1004.45 1003.88 1003.31 1002.75 1002.23 1001.75 1001.33 1000.96 1000.65 1000.39 1000.17 999.99 999.83 999.68 999.55 999.42 999.30 999.18 999.08 999.01 998.96 998.94 998.96 999.02 999.12 999.26 999.44 999.66 999.93 1000.23 1000.58 1000.97 1001.40 1001.88 1002.39 1002.95 1003.55
1006.65 1006.52 1006.27 1005.93 1005.49 1004.99 1004.45 1003.89 1003.32 1002.78 1002.27 1001.80 1001.40 1001.04 1000.74 1000.49 1000.27 1000.09 999.92 999.77 999.63 999.49 999.36 999.23 999.12 999.02 998.95 998.91 998.89 998.91 998.97 999.06 999.19 999.36 999.57 999.83 1000.13 1000.48 1000.88 1001.33 1001.83 1002.39 1002.98
Thickness
5649 5643 5638 5633 5628 5624 5619 5615 5612 5608 5606 5603 5602 5601 5601 5601 5602 5603 5605 5607 5610 5613 5616 5620 5623 5627 5629 5633 5637 5641 5645 5651 5656 5666 5677 5685 5691 5696 5699 5703 5707 5710 5713
5644 5638 5632 5627 5621 5616 5611 5607 5604 5600 5597 5595 5593 5591 5591 5592 5592 5592 5593 5597 5599 5602 5605 5608 5612 5617 5620 5624 5627 5632 5636 5642 5648 5655 5665 5674 5680 5686 5690 5693 5697 5701 5704
5640 5634 5627 5621 5615 5609 5605 5600 5596 5592 5589 5586 5584 5582 5582 5582 5582 5582 5583 5584 5587 5590 5593 5596 5600 5604 5609 5613 5617 5622 5627 5634 5640 5647 5654 5663 5670 5675 5679 5683 5686 5690 5695
5636 5629 5622 5616 5610 5604 5599 5594 5590 5586 5582 5579 5576 5575 5573 5573 5572 5572 5572 5573 5574 5576 5580 5583 5587 5592 5597 5602 5607 5612 5617 5623 5629 5636 5643 5650 5658 5665 5669 5672 5675 5679 5685
5631 5624 5618 5612 5605 5599 5593 5588 5584 5579 5576 5572 5569 5567 5565 5563 5562 5561 5560 5560 5560 5561 5564 5567 5573 5579 5585 5590 5596 5601 5606 5612 5618 5626 5633 5640 5648 5654 5660 5664 5667 5670 5674
5626 5620 5614 5607 5600 5593 5588 5583 5578 5573 5569 5565 5562 5559 5557 5556 5554 5552 5549 5547 5546 5546 5547 5551 5555 5562 5571 5578 5585 5592 5597 5602 5608 5615 5624 5631 5641 5649 5653 5657 5660 5663 5666
5622 5615 5608 5601 5594 5588 5583 5578 5572 5568 5563 5559 5556 5552 5549 5547 5544 5541 5539 5536 5533 5532 5533 5534 5540 5549 5555 5561 5569 5578 5586 5594 5602 5608 5615 5624 5633 5643 5647 5650 5654 5657 5661
5617 5609 5602 5595 5589 5583 5577 5571 5567 5562 5557 5554 5550 5547 5543 5541 5538 5534 5530 5527 5524 5522 5521 5523 5525 5531 5538 5545 5552 5561 5570 5581 5591 5600 5608 5617 5625 5634 5642 5647 5650 5649 5650
5612 5604 5597 5590 5584 5578 5572 5567 5562 5557 5553 5549 5545 5541 5537 5534 5531 5527 5523 5518 5514 5512 5512 5513 5515 5519 5526 5532 5538 5547 5556 5566 5576 5587 5597 5606 5616 5624 5631 5635 5639 5642 5643
5607 5599 5592 5585 5579 5573 5567 5562 5557 5552 5548 5544 5540 5536 5531 5528 5525 5520 5515 5509 5505 5503 5502 5503 5507 5511 5515 5520 5527 5535 5543 5553 5564 5574 5583 5594 5605 5614 5622 5630 5637 5640 5642
5602 5595 5588 5581 5574 5569 5564 5558 5553 5548 5543 5539 5535 5531 5526 5522 5517 5513 5508 5502 5499 5496 5495 5495 5499 5503 5507 5512 5519 5527 5536 5544 5552 5562 5572 5583 5595 5605 5614 5622 5631 5638 5641
5598 5590 5583 5577 5571 5567 5559 5554 5549 5544 5538 5534 5528 5524 5520 5515 5511 5506 5502 5498 5494 5490 5489 5490 5493 5498 5501 5506 5512 5521 5528 5535 5542 5552 5562 5574 5586 5598 5607 5615 5623 5629 5636
5593 5585 5579 5573 5568 5562 5556 5551 5546 5540 5534 5529 5523 5518 5513 5509 5505 5501 5498 5494 5490 5487 5486 5488 5490 5494 5497 5502 5508 5516 5522 5527 5535 5544 5555 5566 5578 5589 5599 5606 5613 5618 5623
5589 5582 5576 5570 5564 5559 5554 5548 5543 5538 5532 5526 5520 5514 5509 5504 5500 5495 5492 5489 5488 5486 5485 5486 5489 5491 5495 5500 5505 5511 5517 5524 5531 5539 5549 5559 5569 5580 5591 5600 5606 5611 5613
5585 5578 5573 5567 5561 5556 5552 5546 5542 5537 5530 5524 5518 5512 5506 5502 5498 5493 5489 5488 5486 5486 5486 5486 5487 5489 5492 5497 5502 5508 5513 5519 5526 5534 5543 5552 5562 5573 5583 5593 5600 5604 5608
5581 5575 5570 5565 5560 5554 5549 5546 5543 5537 5532 5526 5520 5513 5507 5502 5498 5494 5491 5489 5488 5488 5488 5490 5491 5492 5495 5499 5503 5507 5512 5518 5524 5531 5539 5548 5557 5567 5576 5585 5593 5600 5604
5578 5573 5568 5563 5558 5553 5548 5543 5540 5538 5534 5528 5522 5516 5509 5504 5500 5496 5494 5492 5491 5491 5491 5493 5495 5497 5500 5502 5505 5509 5513 5519 5525 5531 5537 5545 5553 5562 5571 5579 5587 5594 5598
5576 5572 5567 5561 5556 5552 5548 5543 5539 5535 5531 5528 5525 5519 5513 5508 5503 5500 5497 5494 5494 5495 5495 5498 5500 5502 5504 5506 5509 5513 5517 5521 5526 5531 5537 5543 5550 5559 5567 5575 5582 5589 5593
5574 5569 5565 5560 5556 5552 5548 5544 5540 5536 5532 5528 5525 5521 5517 5512 5507 5504 5500 5498 5499 5500 5501 5503 5505 5507 5509 5512 5515 5517 5521 5524 5529 5532 5537 5543 5549 5556 5564 5572 5578 5582 5588
5570 5568 5565 5559 5555 5551 5548 5545 5541 5537 5533 5530 5526 5523 5519 5513 5510 5509 5505 5504 5504 5506 5508 5510 5512 5514 5516 5518 5520 5522 5525 5528 5531 5534 5539 5543 5549 5556 5562 5568 5575 5580 5584
5567 5563 5562 5558 5554 5550 5548 5545 5541 5538 5535 5532 5529 5527 5522 5517 5514 5513 5512 5511 5511 5513 5514 5516 5518 5520 5522 5523 5525 5527 5529 5531 5534 5536 5540 5544 5549 5554 5560 5566 5571 5576 5580
5562 5559 5557 5554 5552 5550 5547 5545 5542 5539 5537 5534 5532 5529 5526 5522 5519 5517 5517 5517 5517 5518 5519 5520 5522 5524 5526 5528 5530 5531 5532 5534 5536 5539 5542 5546 5550 5554 5558 5563 5567 5571 5576
5558 5556 5554 5553 5550 5549 5547 5545 5542 5540 5538 5536 5533 5531 5528 5525 5522 5520 5520 5520 5520 5520 5521 5522 5524 5526 5528 5530 5532 5534 5536 5537 5540 5542 5544 5547 5550 5553 5557 5561 5565 5569 5573
5555 5552 5551 5549 5548 5545 5544 5543 5542 5540 5539 5537 5535 5533 5530 5527 5525 5523 5521 5520 5521 5521 5521 5523 5524 5526 5528 5530 5532 5534 5537 5539 5542 5543 5546 5548 5550 5553 5556 5559 5564 5567 5570
5551 5549 5547 5545 5543 5542 5541 5540 5540 5540 5539 5538 5536 5534 5532 5530 5528 5525 5523 5521 5521 5521 5522 5522 5523 5524 5526 5528 5530 5533 5535 5538 5541 5544 5546 5548 5550 5553 5555 5558 5561 5565 5568
5547 5544 5542 5540 5538 5537 5537 5537 5537 5538 5538 5538 5537 5535 5534 5532 5530 5528 5525 5523 5522 5521 5521 5521 5522 5522 5524 5525 5528 5530 5533 5536 5539 5543 5546 5548 5550 5552 5554 5557 5560 5563 5566